Home > Weather > Bangkok > Past weeks

Flag for Thailand Weather for the Past 2 Weeks in Bangkok, Thailand

Now
95 °F

Scattered clouds.


Feels Like: 107 °F
Forecast: 85 / 96 °F
Wind: 7 mph from Southwest

Location: Don Muang Airport

Current Time: May 1, 2016 at 1:43:06 PM

Latest Report: May 1, 2016 at 1:00 PM


Visibility: N/A

Pressure: 29.80 "Hg

Humidity: 53%

Dew Point: 75 °F

Location of BangkokLocation

Historic Weather in Bangkok — Graph

°F

Bangkok Temperature Yesterday

Maximum temperature yesterday: 95 °F (at 10:30 AM)
Minimum temperature yesterday: 73 °F (at 2:30 PM)
Average temperature yesterday: 84 °F

High & Low Weather Summary for the Past Weeks

 TemperatureHumidityPressure
High100 °F (Apr 16, 2:00 PM)100% (Apr 30, 2:30 PM)29.92 "Hg (Apr 30, 2:30 PM)
Low73 °F (Apr 30, 2:30 PM)39% (Apr 21, 12:30 PM)29.62 "Hg (Apr 27, 5:00 PM)
Average90 °F70%29.77 "Hg
* Reported Apr 16 11:00 AM — May 1 11:30 AM, Bangkok, Weather by CustomWeather, © 2016

Note: Actual official high and low records may vary slightly from our data, if they occured in-between our weather recording intervals... More about our weather records

Advertising

Bangkok Weather History for the Previous 24 Hours

Scroll right to see more
 ConditionsComfort  
Time TempWeatherWind HumidityBarometerVisibility
11:30 AM
Sun, May 1
93 °FScattered clouds.7 mph59%29.83 "Hg6 mi
10:30 AM90 °FScattered clouds.7 mph67%29.86 "Hg6 mi
9:30 AM86 °FScattered clouds.6 mph75%29.86 "Hg6 mi
9:00 AM84 °FScattered clouds.5 mph74%29.86 "HgN/A
8:30 AM82 °FScattered clouds.6 mph79%29.86 "HgN/A
8:00 AM81 °FScattered clouds.5 mph84%29.86 "HgN/A
7:30 AM81 °FPassing clouds.3 mph89%29.86 "HgN/A
7:00 AM79 °FPassing clouds.5 mph94%29.83 "Hg6 mi
6:30 AM79 °FPassing clouds.3 mph94%29.83 "Hg6 mi
6:00 AM79 °FPassing clouds.2 mph94%29.80 "Hg6 mi
5:30 AM79 °FPassing clouds.3 mph94%29.80 "HgN/A
5:00 AM77 °FPassing clouds.2 mph100%29.80 "HgN/A
4:30 AM77 °FPassing clouds.3 mph94%29.77 "HgN/A
4:00 AM77 °FPassing clouds.2 mph94%29.77 "HgN/A
3:30 AM79 °FPassing clouds.2 mph94%29.77 "HgN/A
3:00 AM79 °FPassing clouds.No wind94%29.77 "HgN/A
2:30 AM77 °FPassing clouds.5 mph100%29.77 "HgN/A
2:00 AM77 °FPassing clouds.3 mph100%29.77 "HgN/A
1:30 AM77 °FPassing clouds.3 mph100%29.80 "HgN/A
1:00 AM77 °FPassing clouds.6 mph100%29.80 "HgN/A
12:30 AM79 °FPassing clouds.6 mph100%29.80 "HgN/A
12:00 AM79 °FPassing clouds.6 mph100%29.83 "HgN/A
11:30 PM
Sat, Apr 30
79 °FPassing clouds.No wind94%29.83 "HgN/A
11:00 PM79 °FPassing clouds.7 mph94%29.83 "HgN/A
10:30 PM79 °FPassing clouds.5 mph94%29.83 "HgN/A
10:00 PM79 °FPassing clouds.5 mph94%29.83 "HgN/A
9:30 PM79 °FPassing clouds.3 mph94%29.83 "HgN/A
9:00 PM79 °FPassing clouds.3 mph94%29.86 "HgN/A
8:30 PM81 °FPassing clouds.7 mph89%29.83 "HgN/A
8:00 PM81 °FPassing clouds.7 mph84%29.83 "HgN/A
7:30 PM81 °FPassing clouds.7 mph84%29.83 "HgN/A
7:00 PM81 °FPassing clouds.7 mph84%29.83 "HgN/A
6:30 PM79 °FPassing clouds.5 mph94%29.77 "HgN/A
6:00 PM79 °FPassing clouds.7 mph94%29.77 "HgN/A
5:30 PM79 °FPassing clouds.8 mph94%29.74 "HgN/A
5:00 PM79 °FPassing clouds.8 mph94%29.74 "HgN/A
4:30 PM77 °FPassing clouds.10 mph100%29.74 "HgN/A
4:00 PM77 °FScattered clouds.12 mph100%29.77 "HgN/A
3:30 PM75 °FLight rain. Scattered clouds.7 mph100%29.77 "HgN/A
3:00 PM75 °FScattered clouds.12 mph94%29.80 "HgN/A
2:30 PM73 °FRain. Broken clouds.16 mph100%29.80 "Hg2 mi
2:00 PM75 °FLight rain. Broken clouds.18 mph94%29.83 "Hg5 mi
1:30 PM81 °FLight rain. Broken clouds.13 mph74%29.80 "HgN/A
1:00 PM82 °FThunderstorms. Broken clouds.13 mph89%29.80 "Hg5 mi
Weather by CustomWeather, © 2016

See weather overviewHow to use our weather pages